Regional Weather Roundup
Issued by NWS Wakefield, VA

Home | Current Version | Previous Version | Graphics & Text | Print | Product List | Glossary On
Versions: 1 2 3 4 5 6 7 8 9 10 11 12 13 14 15 16 17 18 19 20 21 22 23 24 25 26 27 28 29 30 31 32 33 34 35 36 37 38 39 40 41 42 43 44 45 46 47 48 49 50
000
ASUS41 KAKQ 030410
RWRAKQ

REGIONAL WEATHER ROUNDUP
NATIONAL WEATHER SERVICE WAKEFIELD VA
1100 PM EST MON MAR 02 2015

Note: "fair" indicates few or no clouds below 12,000 feet with no
significant weather and/or obstructions to visibility. * = Denotes
station may not report precipitation (e.g., rain,snow,etc.),
thunder or fog.

VAZ042-051-052>054-056-030500-
NORTHERN VIRGINIA

CITY           SKY/WX    TMP DP  RH WIND       PRES   REMARKS
WASH NATIONAL  FAIR      34  16  47 N8        30.45R
DULLES         FAIR      30  14  51 NW7       30.42S
FORT BELVOIR   FAIR      29  17  59 NW3       30.44R
QUANTICO       FAIR      33  16  49 NE9       30.44S
FREDERICKSBRG* FAIR      35  18  50 N7        30.41R
STAFFORD*      FAIR      32  13  46 N13       30.45S WCI  22
WARRENTON      FAIR      29  21  71 CALM      30.41F
CULPEPER*      FAIR      30  18  59 CALM      30.42S
MANASSAS*      FAIR      28  19  69 NE5       30.43
LEESBURG*      FAIR      32  19  59 NE3       30.43S
WINCHESTER     FAIR      30  12  47 N3        30.40F
FRONT ROYAL*   FAIR      28  16  59 E3        30.40R
LURAY*         FAIR      30  19  64 CALM      30.39S
$$

VAZ048-049-060>072-079>083-030500-
CENTRAL AND SOUTH CENTRAL VIRGINIA

CITY           SKY/WX    TMP DP  RH WIND       PRES   REMARKS
RICHMOND       MOCLDY    32  19  58 CALM      30.41R
CHESTERFIELD*  FAIR      34  14  44 CALM      30.42R
PETERSBURG*    FAIR      36  21  54 N5        30.42R
HANOVER        FAIR      28  23  81 CALM      30.43R
TAPPAHANNOCK*  FAIR      31  17  56 NW3       30.42R
QUINTON*       FAIR      29  23  79 CALM      30.42R
CHARLOTTSVILLE FAIR      33  16  49 E3        30.38S
GORDONSVILLE*  FAIR      30  17  58 CALM      30.39S
ORANGE*        FAIR      30  19  64 CALM      30.41S
LOUISA*        FAIR      28  19  69 CALM      30.39R
BUMPASS*       FAIR      30  19  63 CALM      30.40S
FARMVILLE*     FAIR      37  19  47 NE7       30.39R
CREWE*         FAIR      37  20  52 CALM      30.40S
FORT PICKETT*  FAIR      36  20  52 NE6       30.40R
CHASE CITY*    FAIR      42  34  73 E3        30.37S
CLARKSVILLE*   FAIR      41  36  81 E8        30.36R
SOUTH HILL*    FAIR      36  31  82 CALM      30.45R
LAWRENCEVILLE* FAIR      35  31  83 NE3       30.39S
EMPORIA*       FAIR      32  30  93 CALM      30.43R
$$

VAZ088>098-030500-
SOUTHEAST VIRGINIA

CITY           SKY/WX    TMP DP  RH WIND       PRES   REMARKS
NORFOLK        FAIR      35  19  52 CALM      30.41R
VIRGINIA BEACH FAIR      35  20  54 CALM      30.40R
NORFOLK NAVAL  MOCLDY    39  22  50 NE9       30.43R
WEST POINT*    FAIR      30  22  73 CALM      30.44R
SALUDA*        FAIR      27  20  75 CALM      30.42R
NEWPORT NEWS   FAIR      32  25  75 CALM      30.42R
LANGLEY AFB    FAIR      32  24  73 NE3       30.41R
FORT EUSTIS    FAIR      32  27  81 S1        30.40R
WILLIAMSBURG*  FAIR      32  28  86 CALM      30.42R
HR EXEC AP*    FAIR      34  19  55 NE5       30.43R
FRANKLIN*      FAIR      30  27  87 CALM      30.42R
WAKEFIELD      FAIR      30  27  88 CALM      30.41R
$$

VAZ020-022-025-037-045-030500-
WEST CENTRAL AND SOUTHWEST VIRGINIA

CITY           SKY/WX    TMP DP  RH WIND       PRES   REMARKS
STAUNTON*      FAIR      32  14  48 N5        30.39S
WAYNESBORO*    FAIR      30  13  48 NW3       30.36S
HOT SPRINGS VA FAIR      26  10  52 CALM      30.25S
LYNCHBURG      FAIR      38  16  40 NE7       30.38R
DANVILLE       FAIR      38  21  50 NW3       30.36R
SOUTH BOSTON*  FAIR      40  25  54 NE7       30.36R
MARTINSVILLE   FAIR      36  18  48 NE3       30.37F
ROANOKE        FAIR      38  14  37 NE3       30.38S
BLACKSBURG     FAIR      31  17  56 CALM      30.37S
DUBLIN*        FAIR      34  18  51 CALM      30.35F
MARION*        FAIR      31  25  77 CALM      30.33F
HILLSVILLE*    FAIR      32  19  58 NE6       30.29F
RICHLANDS*     FAIR      33  19  56 E8        30.28F
WISE*          FAIR      34  21  60 CALM      30.28F
ABINGDON*      FAIR      38  25  58 E8        30.28F
$$

MDZ021>025-VAZ099-100-030500-
SOUTHERN MARYLAND AND THE DELMARVA PENINSULA

CITY           SKY/WX    TMP DP  RH WIND       PRES   REMARKS
PATUXENT RIVER FAIR      32  16  51 N10       30.42R WCI  24
BAY BRIDGE APT   N/A     32  18  55 W6        30.43S
LEONARDTOWN    FAIR      32  16  51 N5        30.44R
DOVER          FAIR      31  16  55 W9        30.40S
GEORGETOWN     FAIR      29  18  63 CALM      30.41R
EASTON         FAIR      31  21  65 CALM      30.46R
CAMBRIDGE      FAIR      34  18  51 NW8       30.42R
SALISBURY      FAIR      33  18  53 NW7       30.41R
OCEAN CITY     FAIR      28  18  66 NW3       30.41R
WALLOPS ISLAND FAIR      30  17  58 N6        30.41R
ACCOMACK*      FAIR      34  16  47 N14       30.39S WCI  24
$$

NCZ012>017-030>032-030500-
NORTH CENTRAL AND EASTERN NORTH CAROLINA

CITY           SKY/WX    TMP DP  RH WIND       PRES   REMARKS
ROANOKE RAPIDS FAIR      37  32  81 CALM      30.39S
RALEIGH        FAIR      38  25  59 CALM      30.35R
ELIZABETH CITY CLOUDY    38  23  55 NE10      30.40R
AHOSKIE*       FAIR      37  24  58 CALM      30.41R
EDENTON*       FAIR      38  27  66 NE3       30.40R
CURRITUCK*     FAIR      38  22  54 NE5       30.41R
KILL DEVIL HLS MOCLDY    38  28  67 NE9       30.38R
MANTEO         FAIR      39  25  56 NE14      30.39R
CAPE HATTERAS  FAIR      40  29  64 NE8G16    30.36R
TARBORO*       FAIR      41  33  75 E3        30.40S
GOLDSBORO      CLOUDY    43  42  98 E6        30.36R
WASHINGTON     FAIR      37  30  75 CALM      30.40R
GREENVILLE     MOCLDY    39  32  75 CALM      30.40R
NEW BERN       FAIR      39  31  72 E5        30.40R
WILMINGTON     FAIR      44  36  73 E10       30.36R
$$

VAZ048-030500-
ELSEWHERE

CITY           SKY/WX    TMP DP  RH WIND       PRES   REMARKS
HARRISBURG PA  FAIR      27  13  55 NW8       30.39R
BALTIMORE      FAIR      27  14  58 W6        30.42R
ANNAPOLIS      FAIR      31  15  52 NW3       30.44R
ANDREWS AFB    FAIR      31  15  52 NW9       30.42R
PHILADELPHIA   FAIR      31  15  52 W10       30.40R WCI  22
HENDERSON NC   FAIR      36  33  87 CALM      30.36R
GREENSBORO     MOCLDY    43  16  33 N3        30.33S
ROCKY MOUNT    FAIR      43  37  79 VRB5      30.38R
$$

VAZ100-030500-
MARINE

STATION/POSITION TIME  TEMP    WIND        PRES    WAVE   SWELL
                       AIR SEA DIR/SP/G            HT/PER HT/PER
                 (UTC) (F)     (DEG/KT/KT) (MB)    (FT/S) (FT/S)
BRANDYWINE LGT   0400      30                N/A
CAPE MAY NJ      0400      33                N/A
LEWES DE         0400      30                N/A
15NM E FENWICK I 0400   34 35              1029.0R   2/ 3
OCEAN-CITY-INLET 0400      32                N/A
WACHAPREAGUE VA  0400      36                N/A
THOMAS POINT MD  0400   32 32  310/  8/  9 1031.6R
COVE POINT MD    0300   33     350/ 13/ 14 1029.7
SOLOMONS ISLAND  0400      33                N/A
BISHOPS HEAD MD  0400      35                N/A
CAMBRIDGE MD     0400      32                N/A
LEWISETTA VA     0400      33                N/A
RAPPAHANNOCK LGT 0300          350/ 11/ 13 1029.7
STINGRAY PT      0400   35     360/ 10/ 10   N/A
YORK RVR RNG VA  0300   35      60/  6/  8 1029.3
YORKTOWN VA      0400      35                N/A
DOMINION TERM VA 0300   37      30/  4/  6 1029.7
KIPTOPEKE VA     0400      38                N/A
CHES BAY BRIDGE  0400      33                N/A
CAPE HENRY VA    0300   36     350/  5/  6 1027.9
CHESAPEAKE LGHT  0300   38      20/ 13/ 14 1029.4R
WILLOUBY STN VA  0300   36      20/  9/ 10 1030.0
S CRANEY ISL VA  0300           20/  4/  5 1029.6
CAPE HENRY BUOY  0400      35                N/A     2/ 9
1ST LANDING BUOY 0400   35     360/  6/  6 1028.9R
OFFSHORE WE BUOY 0400      36                N/A     2/ 8   2/ 8
64NM E OF VA BCH 0400   44 58   10/ 21/ 27 1027.8R   5/ 6   2/ 9
DUCK PIER NC     0400      35                N/A
44100 DUCK FRF   0400      37                N/A     3/ 6
44056 DUCK FRF   0400      34                N/A     3/ 4
OREGON INLET NC  0400      43                N/A
HATTERAS NC      0400      44                N/A
CAPE LOOKOUT NC  0300   46      40/ 20/ 22 1027.9R
$$



USA.gov is the U.S. government's official web portal to all federal, state and local government web resources and services.